Location: St. Louis
(38.6270°N, 90.1994°W)
Time: 09:59:07
(UTC-05:00)

deb Delta - Visible Passes

Search period start: 03 July 2022 00:00
Search period end: 13 July 2022 00:00
Orbit: 1085 x 1201 km, 99.8° (Epoch: 02 July)

Date Brightness Start Highest point End Pass type
(mag) Time Alt. Az. Time Alt. Az. Time Alt. Az.
03 Jul ? 01:13:21 31° ESE 01:16:11 44° ENE 01:22:53 10° N visible
03 Jul ? 03:01:36 32° WSW 03:02:48 34° W 03:09:13 10° NNW visible
04 Jul ? 00:40:37 18° ESE 00:44:15 27° ENE 00:50:00 10° N visible
04 Jul ? 02:28:52 50° SW 02:30:21 58° WSW 02:37:26 10° NNW visible
05 Jul ? 00:08:23 10° E 00:12:29 16° NE 00:16:33 10° NNE visible
05 Jul ? 01:56:09 54° SSE 01:58:03 85° ENE 02:05:15 10° NNW visible
05 Jul ? 03:44:24 15° W 03:45:21 16° W 03:49:28 10° NW visible
06 Jul ? 01:23:25 37° ESE 01:25:54 52° ENE 01:32:46 10° N visible
06 Jul ? 03:11:40 28° WSW 03:12:41 29° W 03:18:44 10° NW visible
07 Jul ? 00:50:42 22° ESE 00:53:55 32° ENE 01:00:00 10° N visible
07 Jul ? 02:38:57 45° SW 02:40:11 49° W 02:47:06 10° NNW visible
08 Jul ? 00:17:59 12° E 00:22:05 19° ENE 00:26:47 10° NNE visible
08 Jul ? 02:06:14 58° S 02:07:50 82° WSW 02:15:01 10° NNW visible
08 Jul ? 03:54:29 12° W 03:55:18 13° W 03:58:14 10° WNW visible
08 Jul ? 23:48:48 10° ENE 23:50:26 11° NE 23:52:04 10° NE visible
09 Jul ? 01:33:31 44° SE 01:35:38 61° ENE 01:42:37 10° N visible
09 Jul ? 03:21:46 23° WSW 03:22:35 24° W 03:28:09 10° NW visible
10 Jul ? 01:00:48 27° ESE 01:03:35 37° ENE 01:09:57 10° N visible
10 Jul ? 02:49:03 40° WSW 02:50:02 41° W 02:56:43 10° NNW visible
11 Jul ? 00:28:05 15° E 00:31:42 22° ENE 00:36:54 10° NNE visible
11 Jul ? 02:16:20 59° SSW 02:17:38 71° WSW 02:24:45 10° NNW visible
11 Jul ? 23:57:00 10° E 00:00:00 13° NE 00:02:59 10° NNE visible
12 Jul ? 01:43:37 53° SE 01:45:23 72° ENE 01:52:27 10° N visible
12 Jul ? 03:31:52 20° W 03:32:29 20° W 03:37:27 10° NW visible
